This demonstration page uses our WeatherBlox Daily Observations layout. Learn more.

38.89511, -77.03637

Hourly Observations for June 19, 2018

Temp ( °F °C ) Dew Point ( °F °C ) Humidity (%) Winds ( mph kmh ) Pressure ( in mb ) Visibility ( mi km ) Precip ( " mm )
12:52 am 00:52 Mostly Cloudy 84 28.9 70 21.1 63 63 WSW 8 13 29.88 1012 10 16.09344 0 0
1:52 am 01:52 Mostly Cloudy 81 27.2 71 21.7 72 72 S 8 13 29.85 1011 10 16.09344 0 0
2:52 am 02:52 Mostly Cloudy 80 26.7 72 22.2 76 76 S 9 15 29.83 1010 10 16.09344 0 0
3:52 am 03:52 Partly Cloudy 79 26.1 73 22.8 82 82 S 9 15 29.83 1010 10 16.09344 0 0
4:52 am 04:52 Mostly Cloudy 79 26.1 73 22.8 82 82 S 8 13 29.83 1010 10 16.09344 0 0
5:52 am 05:52 Mostly Cloudy 79 26.1 72 22.2 79 79 S 8 13 29.83 1010 10 16.09344 0 0
6:52 am 06:52 Cloudy 78 25.6 73 22.8 85 85 S 8 13 29.85 1011 10 16.09344 0 0
7:52 am 07:52 Mostly Cloudy 83 28.3 71 21.7 67 67 Calm 29.85 1011 10 16.09344 0 0
8:52 am 08:52 Partly Cloudy 89 31.7 71 21.7 55 55 W 6 9 29.83 1010 10 16.09344 0 0
9:52 am 09:52 Partly Cloudy 91 32.8 71 21.7 52 52 WNW 14 22 29.83 1010 10 16.09344 0 0
10:52 am 10:52 Partly Cloudy 93 33.9 72 22.2 50 50 WNW 10 17 29.83 1010 10 16.09344 0 0
11:52 am 11:52 Mostly Cloudy 92 33.3 71 21.7 51 51 NNW 16 26 29.83 1010 10 16.09344 0 0
12:52 pm 12:52 Mostly Cloudy with Light Rain 92 33.3 73 22.8 54 54 NW 12 19 29.8 1009 10 16.09344 0.001 0.001
1:42 pm 13:42 Mostly Cloudy with Light Rain 90 32.2 72 22.2 56 56 NW 8 13 29.83 1010 6 9.656064 0.001 0.001
1:46 pm 13:46 Mostly Cloudy with Rain 84 29 73 23 70 70 S 14 22 29.83 1010 4 6.437376 0.07 1.778
1:52 pm 13:52 Mostly Cloudy with Rain 82 27.8 73 22.8 74 74 SSE 7 11 29.8 1009 5 8.04672 0.21 5.334
2:12 pm 14:12 Mostly Cloudy with Light Thunderstorms 82 27.8 75 23.9 79 79 E 8 13 29.8 1009 7 11.265408 0.04 1.016
2:22 pm 14:22 Cloudy with Heavy Thunderstorms 83 28.3 75 23.9 77 77 NW 17 28 29.83 1010 1.5 2.414016 0.09 2.286
2:24 pm 14:24 Cloudy with Heavy Thunderstorms 82 27.8 75 23.9 79 79 WNW 18 30 29.83 1010 0.75 1.207008 0.11 2.794
2:27 pm 14:27 Cloudy with Heavy Thunderstorms 80 26.7 75 23.9 85 85 W 15 24 29.83 1010 0.5 0.804672 0.16 4.064
2:33 pm 14:33 Cloudy with Heavy Thunderstorms 77 25 75 23.9 94 94 N 7 11 29.83 1010 1.5 2.414016 0.45 11.43
2:38 pm 14:38 Cloudy with Light Thunderstorms 80 26.7 76 24.4 87 87 NNW 9 15 29.83 1010 3 4.828032 0.48 12.192
2:44 pm 14:44 Cloudy with Heavy Thunderstorms 80 26.7 76 24.4 87 87 N 9 15 29.83 1010 2 3.218688 0.53 13.462
2:52 pm 14:52 Cloudy with Heavy Rain 80 26.7 76 24.4 87 87 N 21 33 29.83 1010 1.75 2.816352 0.6 15.24
2:58 pm 14:58 Cloudy with Heavy Thunderstorms 79 26.1 75 23.9 88 88 N 15 24 29.83 1010 1 1.609344 0.07 1.778
3:16 pm 15:16 Cloudy with Rain 78 25.6 75 23.9 90 90 WSW 7 11 29.85 1011 2.5 4.02336 0.26 6.604
3:26 pm 15:26 Cloudy with Thunderstorms 78 25.6 74 23.3 87 87 Calm 29.83 1010 3 4.828032 0.29 7.366
3:39 pm 15:39 Cloudy with Light Thunderstorms 79 26.1 75 23.9 88 88 ESE 5 7 29.83 1010 10 16.09344 0.31 7.874
3:46 pm 15:46 Cloudy with Light Rain 79 26 75 24 89 89 SE 5 7 29.83 1010 10 16.09344 0.31 7.874
3:52 pm 15:52 Cloudy with Light Rain 78 25.6 75 23.9 90 90 ESE 3 6 29.83 1010 10 16.09344 0.31 7.874
4:02 pm 16:02 Mostly Cloudy with Nearby Thunderstorms 79 26.1 75 23.9 88 88 Calm 29.85 1011 10 16.09344 0.001 0.001
4:52 pm 16:52 Mostly Cloudy with Thunderstorms 83 28.3 75 23.9 77 77 N 10 17 29.83 1010 10 16.09344 0.001 0.001
4:54 pm 16:54 Mostly Cloudy with Thunderstorms 83 28.3 75 23.9 77 77 N 10 17 29.83 1010 10 16.09344 0 0
5:52 pm 17:52 Mostly Cloudy with Thunderstorms 80 26.7 71 21.7 74 74 NNW 9 15 29.83 1010 10 16.09344 0 0
5:56 pm 17:56 Partly Cloudy with Nearby Thunderstorms 80 26.7 72 22.2 76 76 N 9 15 29.83 1010 10 16.09344 0 0
6:34 pm 18:34 Mostly Cloudy 83 28.3 72 22.2 70 70 N 6 9 29.83 1010 10 16.09344 0.001 0.001
6:52 pm 18:52 Mostly Cloudy 83 28.3 71 21.7 67 67 N 7 11 29.83 1010 10 16.09344 0.001 0.001
7:52 pm 19:52 Mostly Cloudy 82 27.8 69 20.6 65 65 N 6 9 29.85 1011 10 16.09344 0 0
8:52 pm 20:52 Clear 81 27.2 68 20 65 65 NW 5 7 29.85 1011 10 16.09344 0 0
9:52 pm 21:52 Mostly Cloudy 80 26.7 71 21.7 74 74 NNW 5 7 29.85 1011 10 16.09344 0 0
10:52 pm 22:52 Cloudy 79 26.1 72 22.2 79 79 N 7 11 29.85 1011 10 16.09344 0 0
11:52 pm 23:52 Partly Cloudy 79 26.1 69 20.6 72 72 NNW 6 9 29.85 1011 10 16.09344 0 0

Powered by AerisWeather